Flag for Germany Weather past 2 weeks in Herten, North Rhine-Westphalia, Germany

Now
52 °F

Scattered clouds.


Feels Like: 51 °F
Forecast: 37 / 55 °F
Wind: 5 mph from West

Location: Essen

Current Time: Apr 28, 2015 at 5:17:29 PM

Latest Report: Apr 28, 2015 at 5:00 PM


Visibility: 37 mi

Pressure: 30.04 "Hg

Humidity: 56%

Dew point: 36 °F

Location of HertenLocation

Historic Weather in Herten — Graph

°F

Herten temperature yesterday

Maximum temperature yesterday: 53 °F (at 12:00 AM)
Minimum temperature yesterday: 44 °F (at 9:00 AM)
Average temperature yesterday: 48 °F

Past Weeks' High & Low Weather Summary

 TemperatureHumidityPressure
High72 °F (Apr 15, 3:00 PM)100% (Apr 26, 3:00 AM)30.47 "Hg (Apr 26, 3:00 AM)
Low36 °F (Apr 28, 7:00 AM)27% (Apr 21, 5:00 PM)29.63 "Hg (Apr 27, 3:00 AM)
Average52 °F67%30.09 "Hg
* Reported Apr 13 4:00 PM — Apr 28 4:00 PM, Herten, Weather by CustomWeather, © 2015

Note: Actual official high and low records may vary slightly from our data, if they occured in-between our weather recording intervals... More about our weather records

Advertising

Herten weather history for previous 24 hours

 ConditionsComfort  
Time TempWeatherWind HumidityBarometerVisibility
4:00 PM
Tue, Apr 28
46 °FLight freezing rain. Low clouds.7 mph58%30.05 "Hg19 mi
3:00 PM49 °FOvercast.5 mph64%30.03 "Hg19 mi
2:00 PM47 °FPartly sunny.6 mph69%30.01 "Hg14 mi
1:00 PM50 °FLow clouds.5 mph65%29.98 "Hg13 mi
12:00 PM52 °FSunny.5 mph61%29.98 "Hg17 mi
11:00 AM48 °FSunny.3 mph66%29.98 "Hg14 mi
10:00 AM46 °FOvercast.3 mph72%29.96 "Hg14 mi
9:00 AM41 °FOvercast.2 mph75%29.96 "Hg19 mi
8:00 AM39 °FOvercast.1 mph90%29.94 "Hg10 mi
7:00 AM36 °FScattered clouds.No wind89%29.92 "Hg14 mi
6:00 AM37 °FOvercast.1 mph88%29.90 "Hg16 mi
5:00 AM37 °FOvercast.2 mph87%29.89 "Hg16 mi
4:00 AM38 °FPassing clouds.2 mph84%29.88 "Hg19 mi
3:00 AM39 °FOvercast.3 mph81%29.87 "Hg19 mi
2:00 AM40 °FOvercast.3 mph77%29.88 "Hg22 mi
1:00 AM41 °FOvercast.6 mph74%29.86 "Hg28 mi
12:00 AM43 °FPassing clouds.5 mph69%29.84 "Hg37 mi
11:00 PM
Mon, Apr 27
45 °FOvercast.5 mph68%29.83 "Hg37 mi
10:00 PM47 °FOvercast.5 mph69%29.82 "Hg25 mi
9:00 PM47 °FOvercast.2 mph73%29.80 "Hg22 mi
8:00 PM49 °FOvercast.2 mph68%29.78 "Hg25 mi
7:00 PM49 °FOvercast.3 mph65%29.78 "Hg22 mi
6:00 PM50 °FOvercast.3 mph65%29.77 "Hg31 mi
5:00 PM49 °FOvercast.5 mph65%29.77 "Hg31 mi
Weather by CustomWeather, © 2015

See weather overviewHow to use our weather pages